Vorticity
nan nan nan nan nan nan nan nan nan nan nan nan nan nan nan nan nan nan nan nan nan nan nan nan nan nan nan nan nan nan nan nan nan nan nan nan nan nan nan nan nan nan nan
nan 5 7 5 5 8 8 8 7 9 10 11 11 11 9 9 9 10 10 9 9 8 8 7 8 9 8 6 9 10 8 10 10 6 4 9 12 10 9 8 10 10 nan
nan 10 9 7 8 9 8 8 7 9 13 14 12 10 11 10 10 10 10 10 8 9 9 8 8 8 7 9 10 11 12 9 8 5 9 8 7 11 11 9 9 10 nan
nan 12 11 12 10 10 11 10 10 11 14 11 11 12 11 11 11 10 11 10 9 9 9 9 9 9 10 10 10 10 8 11 9 8 8 11 9 9 8 11 15 10 nan
nan 15 14 14 14 12 12 12 10 10 12 10 10 10 10 11 13 14 10 9 10 10 10 11 9 10 10 12 10 10 10 8 7 9 9 10 10 6 7 9 11 9 nan
nan 13 14 13 12 14 16 15 12 11 9 7 7 8 8 12 14 12 11 10 10 11 11 10 12 13 11 9 6 5 12 10 7 7 9 8 10 12 9 8 8 10 nan
nan 7 8 8 10 10 12 14 13 10 9 9 7 7 7 13 15 7 6 9 11 10 8 9 10 10 11 11 10 7 6 7 8 10 8 6 9 11 10 11 9 9 nan
nan 6 6 6 7 8 9 11 11 11 11 10 11 11 9 9 11 12 7 5 9 10 11 9 8 7 8 12 10 13 10 9 13 15 14 11 14 13 10 9 9 11 nan
nan 6 5 6 7 8 10 10 11 10 11 12 11 11 12 10 6 8 14 13 10 14 15 11 9 10 13 10 8 9 11 9 6 11 11 14 12 10 10 12 12 9 nan
nan 8 8 7 6 7 8 9 11 11 11 10 9 10 8 10 8 9 10 9 11 15 14 12 10 12 14 8 8 11 11 11 8 5 3 5 7 8 8 7 9 11 nan
nan 10 8 8 9 8 8 8 8 9 9 9 11 10 8 9 9 9 11 9 10 11 14 14 16 13 7 14 11 12 14 11 14 9 8 9 10 10 12 10 7 10 nan
nan 10 10 10 7 7 9 9 8 8 9 11 11 12 15 17 15 8 10 8 10 13 9 13 20 21 12 10 7 13 17 12 8 8 9 9 10 11 12 12 12 9 nan
nan 11 12 11 10 9 9 9 10 11 10 8 8 9 12 17 16 13 4 13 15 12 10 5 16 19 12 14 16 13 4 7 10 9 9 10 11 9 11 14 12 10 nan
nan 10 11 12 11 11 11 10 9 8 9 9 10 11 10 9 14 16 12 15 11 10 10 15 17 11 13 11 14 9 7 11 12 10 10 11 11 12 9 10 11 13 nan
nan 12 13 13 12 14 11 8 9 9 7 9 9 9 11 12 11 8 11 8 11 13 15 12 15 14 11 9 9 10 9 12 11 11 12 11 10 10 11 10 10 12 nan
nan 12 11 12 14 12 10 15 18 11 9 11 8 6 9 9 11 10 10 7 9 12 11 9 10 12 11 10 10 9 10 12 10 10 10 11 11 11 11 10 11 10 nan
nan 12 12 12 13 13 11 10 12 19 20 14 15 14 10 5 8 10 11 10 13 13 10 10 11 11 11 8 11 11 10 7 12 13 11 11 11 11 12 12 11 11 nan
nan 14 14 12 11 12 12 12 12 12 11 19 20 19 15 14 7 10 14 10 11 11 11 10 11 12 11 10 11 10 10 9 11 13 13 11 12 11 10 11 12 11 nan
nan 12 10 12 14 12 11 11 10 10 10 12 16 19 16 13 11 15 11 7 10 10 12 9 11 13 13 11 10 13 10 10 10 13 13 12 10 9 11 9 6 10 nan
nan 11 10 10 11 11 12 14 11 9 13 13 11 9 19 14 9 8 7 12 10 11 11 12 12 12 12 12 13 13 11 10 8 10 11 14 13 11 10 9 9 8 nan
nan 12 14 11 11 11 10 8 10 15 13 9 11 13 13 8 6 11 13 11 11 10 10 12 12 11 11 11 9 12 11 11 10 6 10 13 11 6 12 13 9 9 nan
nan 10 12 12 11 12 12 11 11 9 10 13 13 20 12 3 9 11 11 12 13 10 12 13 11 12 12 12 11 10 9 10 13 11 11 9 6 12 12 10 9 9 nan
nan 11 11 11 11 11 11 12 14 11 10 11 12 16 13 8 12 12 12 13 14 13 12 12 11 12 14 13 13 10 9 8 8 13 11 9 5 10 12 12 10 9 nan
nan 12 12 13 13 12 12 12 10 12 14 13 15 13 9 13 15 9 13 16 12 12 13 14 14 12 10 10 12 12 13 15 13 13 8 6 6 11 10 10 11 10 nan
nan 12 13 14 12 12 14 14 12 13 13 13 13 11 10 13 14 13 13 15 13 12 11 11 15 16 14 9 2 16 20 15 15 10 11 10 10 10 8 9 11 11 nan
nan nan nan nan nan nan nan nan nan nan nan nan nan nan nan nan nan nan nan nan nan nan nan nan nan nan nan nan nan nan nan nan nan nan nan nan nan nan nan nan nan nan nan
CAPE
684 471 388 276 91 327 1026 1425 1466 1563 1986 2373 2536 2414 2228 2053 2080 2290 1864 1730 1568 1716 1610 1572 1575 1795 1632 1318 3285 1604 1943 1812 1027 827 1098 1499 2225 2333 1737 1475 1122 1153 707
1177 772 634 241 343 480 947 1277 1102 1266 1838 2228 2586 2745 2443 2176 2269 2400 2070 1654 1720 1755 1841 1843 1806 1392 1898 2104 1530 1931 2222 1515 1309 1495 2239 2589 2240 1901 2308 2206 1725 929 914
1059 941 768 774 869 1008 1165 1533 1399 2023 2511 2633 2747 2919 2548 2239 2030 2108 2120 2024 1615 1919 1974 1896 1923 1680 1864 1852 2064 2102 1592 1853 1870 1645 1436 1394 1474 1743 1920 2221 2025 1510 1599
1637 1314 1200 1157 1118 936 1058 1098 1312 2229 3115 2972 2752 2779 2602 2155 2191 1768 1758 1923 1625 1794 2014 1989 1821 1845 1998 2320 2860 3235 2530 3275 1951 1925 1281 1384 1227 1238 1854 1291 1419 2208 1369
2543 2521 2582 2513 2543 2630 3030 2903 2034 2694 2826 2382 2699 2486 1948 2403 1478 1643 1528 1527 1872 1719 1708 1765 1840 1805 1462 1415 2279 2538 2431 3407 1742 1581 1122 1006 661 592 794 265 399 128 272
1770 1944 2516 2755 2505 2616 3044 3186 2915 2722 2552 2371 1996 2376 2257 1707 1029 546 752 1417 1455 1543 1806 2383 2321 1178 1176 1064 639 667 1367 2648 2040 1147 1034 883 1242 978 298 74 0 0 0
791 866 1022 1025 903 1407 1888 2393 2863 2887 2478 2136 1811 1828 1754 1877 423 232 113 1105 1460 1844 2048 2227 1914 1236 1554 1991 373 209 256 551 538 2262 2553 1893 1548 845 489 339 11 0 0
476 360 410 455 647 969 1039 1432 1621 1735 2326 2503 2267 2052 1678 1443 84 5 8 678 1342 1917 1945 2065 1973 1958 2599 2283 2231 2233 1991 2132 1887 1580 1776 1986 1390 358 124 29 0 0 0
175 148 141 154 200 315 492 896 1074 1301 1416 1289 1275 1331 1510 1279 24 0 0 266 588 1256 1616 1640 1407 1499 1283 856 1624 2053 2129 2209 73 0 0 0 0 0 0 0 0 1 0
235 289 424 405 283 183 200 378 707 904 798 701 651 557 280 219 0 0 0 0 307 688 1902 1359 237 929 1010 808 1597 2383 2472 2881 2316 344 19 0 0 0 0 0 0 0 6
172 434 644 558 586 594 642 696 693 624 757 710 634 611 585 385 328 0 0 0 0 0 822 829 1134 424 30 141 322 1985 1552 2548 839 1475 887 170 0 0 3 6 10 10 9
475 476 604 827 595 51 838 926 886 821 729 953 1188 454 225 1113 0 0 0 0 0 0 119 1683 1274 870 34 4 1 303 378 841 930 427 300 45 0 0 0 5 83 19 19
258 393 583 814 834 788 970 1131 630 1159 582 343 1 0 0 10 918 0 0 0 0 0 0 2 0 7 1 1 1 0 0 352 660 560 189 1 0 0 0 19 92 31 147
66 82 78 122 452 495 382 135 22 4 0 0 0 0 3 5 20 718 225 57 3 0 1 3 11 13 18 5 3 1 0 172 287 344 75 0 0 0 41 59 25 14 30
0 0 0 0 4 282 367 10 2 61 0 0 0 0 0 25 35 11 80 61 117 16 8 14 7 29 32 7 6 2 2 87 69 117 46 16 12 38 75 47 33 37 23
1 0 0 0 5 12 14 10 0 0 0 0 0 0 0 0 0 0 0 0 1 1 5 8 8 2 23 20 22 23 165 101 116 40 41 39 43 67 63 25 54 48 7
24 17 15 10 18 17 25 27 19 2 0 0 0 0 1 3 0 2 0 0 0 0 15 41 56 11 13 30 148 172 131 61 76 38 44 55 54 14 0 34 74 38 13
24 7 22 27 31 30 40 42 41 94 87 107 4 0 1 2 0 0 1 1 3 1 11 79 68 67 115 70 137 233 98 11 2 1 23 44 2 0 0 0 0 0 0
24 15 11 37 33 21 24 30 52 89 98 173 229 13 1 1 1 0 0 3 5 325 79 109 153 245 160 254 211 363 166 0 0 4 28 10 0 0 0 0 0 0 0
32 5 2 19 15 14 61 183 298 307 319 234 199 259 42 0 88 102 0 3 8 520 924 405 301 348 261 293 208 232 61 6 0 8 6 1 0 0 0 0 0 0 0
74 44 37 43 29 21 14 34 452 462 386 464 390 234 9 33 324 195 230 45 1 350 840 781 618 476 353 356 197 111 24 2 4 0 0 0 5 3 19 32 54 52 79
86 45 17 10 4 9 20 20 33 44 352 412 474 275 6 137 353 244 274 354 305 289 728 1087 808 659 463 487 404 137 85 0 0 0 1 2 1 6 7 67 65 115 60
52 18 23 9 10 4 10 20 15 28 141 351 524 396 135 266 482 455 333 294 509 808 590 680 864 676 621 663 625 259 50 15 1 0 1 0 0 41 64 62 37 56 128
12 13 13 4 1 4 1 13 7 8 308 379 422 467 419 366 710 604 598 503 613 969 1099 1129 1004 821 710 580 322 288 145 13 0 1 0 0 38 26 120 99 95 99 143
9 11 4 6 15 13 16 17 20 23 70 450 226 334 684 562 667 1002 959 1004 931 1152 1222 1051 1055 929 908 780 150 60 88 0 10 0 0 0 0 48 84 88 143 147 173
9 12 19 9 11 13 13 14 17 18 17 182 708 938 1017 1216 972 833 939 1038 1166 1267 1294 1168 971 907 950 855 464 13 0 0 0 0 0 1 109 82 92 136 262 189 221